www.pogodaiklimat.ru

Погода и климат >> Архив погоды >> Финляндия >> Котка Хаапасари


ПОГОДА в Котка Хаапасари

  • Прогноз погоды в Котка Хаапасари
  • Монитор погоды в Котка Хаапасари

АРХИВ ПОГОДЫ в Котка Хаапасари

Время (UTC), дата Ветер
(напр.,м/с)
 
Видим.   Явления Облачность Т
(С)
Тd
(С)
f
(%)
Тe
(С)
Тes
(С)
Комфортность P
(гПа)
Po
(гПа)
Тmin
(С)
Tmax
(С)
R
(мм)
R24
(мм)
S
(см)
10 17.06 З 8 30 км ясно +16.1 +12.6 80 +14 +17 1012.2 1011.8
11 17.06 ЮЗ 6 30 км ясно +16.1 +12.6 80 +15 +20 1012.2 1011.8
12 17.06 З 6-8
{8}
29 км 3/0 2000 м
[]
+16.0 +12.9 82 +15 +19 1012.1 1011.7
13 17.06 З 9 22 км ясно +16.5 +13.2 81 +15 +16 1011.6 1011.2
14 17.06 З 10-12
{12}
29 км 1/0
[]
+16.1 +13.3 83 +14 +15 1011.4 1011.0
15 17.06 З 11-13
{13}
35 км 9/9
[]
+16.0 +13.6 86 +14 +14 1011.4 1011.0
16 17.06 СЗ 9 30 км слаб. ливневой дождь 9/9
[]
+17.7 +13.8 78 +17 +17 1011.0 1010.6
17 17.06 З 8 30 км в посл. час дождь 9/9
[]
+15.5 +13.5 88 +14 +14 1011.2 1010.8
18 17.06 З 11-12
{13}
30 км 8/6
[]
+15.1 +12.7 86 +13 +13 1011.2 1010.8 +15.1 +18.5
19 17.06 З 10-13
{13}
35 км 6/3
[]
+14.9 +12.3 84 +12 +12 1011.1 1010.7
20 17.06 З 10 30 км 10/10
[]
+14.6 +12.3 86 +12 +12 1011.4 1011.0
21 17.06 З 11-13
{13}
30 км 8/8
[]
+14.6 +12.1 85 +12 +12 1011.3 1010.9
22 17.06 З 11 28 км 5/0
[]
+14.5 +12.1 86 +12 +12 1011.4 1011.0
23 17.06 З 10 27 км ясно +14.1 +12.3 89 +11 +11 1011.6 1011.2
00 18.06 З 9-11
{12}
25 км ясно +14.0 +12.3 89 +11 +11 1011.8 1011.4
01 18.06 З 8-9
{11}
24 км ясно +13.8 +12.4 91 +11 +11 1012.0 1011.6
02 18.06 З 8 20 км ясно +13.7 +12.7 94 +11 +11 1012.2 1011.8
03 18.06 З 8-9
{11}
18 км ясно +13.7 +12.7 94 +11 +11 1012.3 1011.9
04 18.06 З 7 17 км ясно +13.8 +12.7 93 +11 +12 1012.2 1011.8
05 18.06 З 9 25 км ясно +14.2 +12.7 91 +12 +12 1012.3 1011.9
06 18.06 З 10-11
{11}
21 км ясно +14.5 +12.8 90 +12 +12 1012.4 1012.0 +13.6 +15.1
07 18.06 З 9-10
{11}
24 км 8/0 1500 м
[]
+14.5 +12.8 90 +12 +12 1012.7 1012.3
08 18.06 З 9-11
{11}
24 км ясно +14.9 +12.9 88 +13 +14 1013.1 1012.7
09 18.06 З 10-12
{12}
24 км ясно +15.3 +12.8 85 +13 +14 1013.6 1013.2
10 18.06 З 9 22 км ясно +15.4 +12.8 84 +13 +15 1013.8 1013.4
11 18.06 З 12-14
{14}
24 км ясно +15.6 +13.0 85 +13 +13 1013.9 1013.5
12 18.06 З 12-14
{14}
30 км ясно +16.0 +12.8 81 +14 +14 1014.1 1013.7
13 18.06 З 12 26 км ясно +16.0 +12.5 80 +14 +14 1014.0 1013.6
14 18.06 З 12 22 км ясно +15.5 +12.8 84 +13 +13 1014.0 1013.6
15 18.06 З 12-15
{15}
26 км ясно +15.4 +12.1 81 +13 +13 1013.8 1013.4
16 18.06 З 12-15
{15}
24 км ясно +15.4 +12.4 82 +13 +13 1013.5 1013.1
17 18.06 З 12-15
{15}
21 км ясно +15.1 +12.3 83 +12 +12 1013.3 1012.9
18 18.06 З 12-14
{15}
23 км ясно +14.7 +12.4 86 +12 +12 1013.2 1012.8 +14.4 +16.3
19 18.06 З 12 16 км ясно +14.4 +12.7 90 +11 +11 1013.4 1013.0
20 18.06 З 11 15 км ясно +14.3 +12.7 90 +11 +11 1013.7 1013.3
21 18.06 З 11-13
{15}
16 км ясно +14.3 +12.6 90 +11 +11 1013.9 1013.5
22 18.06 З 10-12
{13}
16 км ясно +14.2 +12.6 90 +11 +11 1014.2 1013.8
23 18.06 З 10 14 км ясно +13.9 +12.7 92 +11 +11 1014.4 1014.0
00 19.06 З 8-9
{10}
13 км ясно +13.7 +12.7 94 +11 +11 1014.8 1014.4
01 19.06 З 7 12 км ясно +13.4 +12.6 95 +11 +11 1015.0 1014.6
02 19.06 З 6-8
{9}
14 км ясно +13.7 +12.8 94 +11 +12 1015.1 1014.7
03 19.06 З 8-9
{10}
15 км ясно +13.8 +12.7 93 +11 +11 1015.2 1014.8
04 19.06 З 7 17 км ясно +14.0 +12.8 92 +12 +12 1015.2 1014.8
05 19.06 З 8 20 км ясно +14.3 +12.8 91 +12 +13 1015.4 1015.0
06 19.06 ЮЗ 7-10
{10}
22 км ясно +14.4 +12.6 89 +12 +14 1015.5 1015.1 +13.4 +14.7
07 19.06 ЮЗ 7-8
{9}
26 км ясно +15.1 +12.4 84 +13 +16 1015.5 1015.1
08 19.06 ЮЗ 6-10
{10}
30 км ясно +15.9 +12.6 81 +15 +19 1015.3 1014.9
09 19.06 ЮЗ 9-12
{12}
28 км ясно +16.6 +12.3 76 +15 +16 1015.4 1015.0
10 19.06 ЮЗ 9 30 км ясно +16.7 +12.3 75 +15 +17 1015.2 1014.8
11 19.06 ЮЗ 9 29 км ясно +17.4 +12.2 72 +16 +18 1015.4 1015.0
12 19.06 З 9-10
{11}
30 км ясно +17.6 +12.8 73 +16 +18 1015.1 1014.7
13 19.06 З 7 30 км ясно +17.8 +12.5 71 +17 +20 1015.0 1014.6
14 19.06 ЮЗ 7 30 км ясно +17.7 +12.5 72 +17 +19 1014.5 1014.1
15 19.06 ЮЗ 7-9
{9}
35 км ясно +17.7 +12.4 71 +17 +18 1014.1 1013.7
16 19.06 ЮЗ 5 30 км ясно +17.9 +12.4 70 +18 +19 1013.7 1013.3
17 19.06 ЮЗ 5-8
{8}
40 км ясно +17.7 +12.5 72 +17 +18 1013.4 1013.0
18 19.06 ЮЗ 5-8
{8}
35 км ясно +17.2 +12.0 71 +17 +17 1013.3 1012.9 +14.4 +18.6
19 19.06 ЮЗ 5 40 км ясно +17.1 +11.8 71 +16 +16 1013.3 1012.9
20 19.06 ЮЗ 5-7
{7}
40 км ясно +16.6 +12.0 74 +16 +16 1013.1 1012.7
21 19.06 ЮЗ 5-7
{7}
45 км ясно +16.0 +12.2 78 +15 +15 1013.5 1013.1
22 19.06 ЮЗ 5-8
{8}
45 км ясно +15.4 +12.8 84 +14 +14 1013.5 1013.1
23 19.06 ЮЗ 6-8
{9}
40 км ясно +16.0 +12.7 81 +15 +15 1013.6 1013.2
00 20.06 ЮЗ 6-8
{8}
45 км ясно +16.2 +12.2 77 +15 +15 1013.8 1013.4
01 20.06 ЮЗ 6-8
{8}
45 км ясно +16.1 +12.3 78 +15 +15 1013.8 1013.4
02 20.06 ЮЗ 5-6
{6}
45 км ясно +15.8 +12.4 80 +15 +15 1013.7 1013.3
03 20.06 З 4-5
{7}
35 км 1/0 2000 м
[]
+15.6 +12.9 84 +15 +15 1013.8 1013.4
04 20.06 ЮЗ 4 40 км 1/1 2000 м
[]
+15.8 +12.7 82 +15 +16 1013.8 1013.4
05 20.06 ЮЗ 4 40 км ясно +17.6 +11.4 67 +17 +20 1013.6 1013.2
06 20.06 Ю 2-3
{5}
35 км ясно +19.7 +12.1 62 +22 +29 комфорт 1013.7 1013.3 +15.3 +19.7
07 20.06 Ю 1 45 км ясно +18.3 +12.0 67 +20 +31 1013.7 1013.3
08 20.06 Ю 3 30 км ясно +19.5 +11.5 60 +21 +31 комфорт 1013.8 1013.4
09 20.06 ЮВ 1-3
{4}
35 км ясно +19.6 +11.2 58 +22 +38 комфорт 1013.8 1013.4
10 20.06 ЮВ 3 30 км ясно +20.3 +11.9 58 +22 +34 комфорт 1013.6 1013.2
11 20.06 ЮВ 3 30 км ясно +20.1 +11.3 57 +22 +34 комфорт 1013.4 1013.0
12 20.06 В 4-5
{5}
28 км ясно +21.9 +12.9 57 +25 +33 комфорт 1013.0 1012.6
13 20.06 В 5-6
{6}
30 км ясно +21.7 +13.5 60 +24 +30 комфорт 1012.7 1012.3
14 20.06 В 5 30 км ясно +21.5 +14.6 65 +25 +29 комфорт 1012.2 1011.8
15 20.06 В 5-6
{8}
30 км ясно +21.8 +12.8 57 +24 +27 комфорт 1011.5 1011.1
16 20.06 В 6 35 км ясно +21.3 +12.5 57 +24 +25 комфорт 1010.9 1010.5
17 20.06 В 7 35 км ясно +19.9 +13.8 68 +21 +22 комфорт 1010.6 1010.2
18 20.06 ЮВ 7-9
{10}
30 км ясно +19.0 +13.6 71 +19 +20 1010.6 1010.2 +17.5 +22.2
19 20.06 ЮВ 7-9
{9}
35 км 4/0
[]
+18.5 +14.4 77 +18 +18 1010.4 1010.0
20 20.06 ЮВ 8 30 км 9/9
[]
+19.5 +13.8 70 +20 +20 1010.2 1009.8
21 20.06 ЮВ 10-10
{11}
28 км 1/0
[]
+18.7 +14.5 77 +19 +19 1010.1 1009.7
22 20.06 ЮВ 8 35 км 1/1
[]
+19.9 +14.2 70 +21 +21 комфорт 1010.1 1009.7
23 20.06 Ю 6-6
{9}
28 км 8/8
[]
+18.2 +14.7 80 +18 +18 1010.2 1009.8
00 21.06 Ю 7-9
{9}
24 км слаб. ливневой дождь 10/10 2000 м
[]
+18.8 +15.2 80 +19 +19 1009.6 1009.3
01 21.06 ЮЗ 7 26 км в посл. час дождь 9/9 2000 м
[]
+17.7 +15.1 85 +17 +17 1010.4 1010.0
02 21.06 Ю 4-3
{8}
30 км 9/9
[]
+19.2 +15.4 79 +21 +21 комфорт 1009.7 1009.3
03 21.06 З 1-2
{4}
28 км в посл. час морось 9/9
[]
+18.7 +15.5 82 +21 +21 комфорт 1009.3 1008.9
04 21.06 ЮВ 2-4
{4}
30 км 9/9
[]
+18.2 +15.5 84 +19 +19 1009.1 1008.7
05 21.06 Ю 5 30 км 8/8
[]
+18.5 +15.4 82 +19 +19 1009.7 1009.3
06 21.06 Ю 5-6
{6}
25 км 9/9
[]
+18.1 +15.6 85 +18 +18 1009.6 1009.2 +16.9 +20.7
07 21.06 Ю 4 25 км ясно +19.3 +16.0 81 +21 +27 комфорт 1009.5 1009.2
08 21.06 Ю 5 25 км ясно +19.1 +16.2 83 +20 +27 1009.3 1008.9
09 21.06 Ю 4-6
{6}
30 км ясно +20.8 +15.8 73 +24 +33 комфорт 1009.5 1009.1
10 21.06 Ю 5 21 км ясно +20.2 +16.5 79 +23 +30 комфорт 1009.5 1009.1
11 21.06 Ю 3 20 км ясно +19.8 +16.4 81 +22 +34 комфорт 1009.4 1009.0
12 21.06 Ю 6-6
{8}
17 км ясно +20.0 +17.4 85 +23 +27 комфорт 1009.4 1009.0
13 21.06 Ю 5 17 км ясно +20.8 +17.3 80 +24 +30 комфорт 1009.2 1008.9
14 21.06 Ю 4 25 км ясно +22.3 +18.0 77 +27 +33 душно 1009.2 1008.9
15 21.06 З 5-6
{8}
17 км ясно +20.0 +17.0 83 +23 +25 комфорт 1009.2 1008.8
16 21.06 ЮЗ 5-9
{9}
17 км ясно +19.7 +16.3 81 +22 +23 комфорт 1009.2 1008.8
17 21.06 ЮЗ 9 22 км ясно +18.3 +15.2 82 +18 +18 1008.7 1008.3
18 21.06 З 11-14
{14}
27 км ясно +17.6 +14.4 82 +16 +16 1008.3 1007.9 +17.6 +22.5
19 21.06 З 11 35 км ясно +16.9 +13.2 79 +15 +15 1008.8 1008.4
20 21.06 ЮЗ 10 28 км ясно +16.0 +13.5 85 +14 +14 1009.3 1008.9
21 21.06 ЮЗ 10-12
{13}
26 км ясно +15.5 +13.7 89 +13 +13 1009.8 1009.4
22 21.06 З 9 21 км ясно +15.2 +13.7 91 +13 +13 1010.0 1009.6
23 21.06 З 11 20 км ясно +15.0 +13.8 93 +12 +12 1010.0 1009.6
00 22.06 З 11-13
{13}
20 км 1/0
[]
+14.9 +13.8 93 +12 +12 1009.9 1009.5
01 22.06 З 9-10
{12}
19 км 9/0
[]
+14.7 +13.6 93 +12 +12 1009.9 1009.5
02 22.06 З 8 19 км 5/0
[]
+14.6 +13.8 95 +12 +12 1010.3 1009.9
03 22.06 З 8-10
{10}
18 км 1/0
[]
+14.6 +13.7 94 +12 +12 1010.8 1010.4
04 22.06 З 7 20 км 5/5
[]
+14.8 +13.7 93 +13 +13 1010.9 1010.5
05 22.06 З 8-10
{10}
22 км 9/9
[]
+14.9 +13.7 93 +13 +13 1011.1 1010.7
06 22.06 З 7-9
{10}
26 км 8/8 2000 м
[]
+15.2 +13.5 90 +13 +14 1011.3 1010.9 +14.6 +17.6
07 22.06 З 8-11
{11}
29 км 1/0 2000 м
[]
+15.5 +13.3 87 +14 +15 1011.3 1010.9
08 22.06 ЮЗ 9 24 км ясно +15.6 +13.6 88 +14 +15 1011.9 1011.5
09 22.06 З 8-11
{14}
35 км 5/5
[]
+16.5 +12.5 77 +15 +16 1012.3 1011.9
10 22.06 З 5 35 км ясно +16.5 +12.5 77 +16 +23 1013.2 1012.8
11 22.06 ЮЗ 11 26 км ясно +15.3 +11.4 78 +13 +13 1013.7 1013.3
12 22.06 З 14-18
{18}
22 км ясно +15.4 +11.7 79 +13 +13 1013.4 1013.0
13 22.06 З 15 20 км ясно +15.2 +11.8 80 +12 +12 1013.9 1013.5
14 22.06 З 16 18 км ясно +15.1 +11.7 80 +12 +12 1014.2 1013.8
15 22.06 З 15-19
{19}
24 км ясно +14.9 +12.1 83 +12 +12 1014.6 1014.2
16 22.06 З 13 25 км ясно +14.8 +12.0 83 +12 +12 1015.3 1014.9
17 22.06 З 14 21 км ясно +14.6 +12.2 86 +11 +11 1015.5 1015.1
18 22.06 З 13-15
{17}
22 км ясно +14.5 +12.4 87 +11 +11 1016.0 1015.6 +14.5 +17.2
19 22.06 З 11 21 км ясно +14.3 +12.2 87 +11 +11 1016.7 1016.3
20 22.06 З 7-8
{11}
35 км ясно +14.1 +11.8 86 +12 +12 1017.5 1017.1
21 22.06 З 7-9
{9}
45 км ясно +14.8 +10.4 75 +13 +13 1018.2 1017.8
22 22.06 З 7-8
{8}
30 км ясно +13.8 +11.9 88 +11 +11 1018.6 1018.2
23 22.06 З 8 35 км ясно +13.9 +11.6 86 +11 +11 1019.1 1018.7
00 23.06 З 7-9
{10}
35 км ясно +13.9 +11.1 83 +12 +12 1019.4 1018.9
01 23.06 З 6-7
{9}
28 км ясно +13.5 +12.0 91 +11 +11 1019.8 1019.4
02 23.06 З 6 23 км ясно +13.2 +12.2 94 +11 +11 1020.0 1019.5
03 23.06 З 6-7
{8}
24 км ясно +13.4 +12.3 93 +11 +11 1020.5 1020.1
04 23.06 З 6 30 км ясно +13.5 +12.3 92 +11 +12 1020.6 1020.2
05 23.06 З 6 29 км ясно +13.8 +12.0 89 +12 +13 1021.1 1020.6
06 23.06 З 6-7
{7}
30 км ясно +14.5 +10.9 79 +13 +15 1021.5 1021.1 +13.2 +15.0
07 23.06 З 6 30 км ясно +15.1 +10.5 74 +13 +17 1021.7 1021.3
08 23.06 З 6-7
{7}
40 км ясно +14.9 +10.9 77 +13 +18 1021.7 1021.3
09 23.06 ЮЗ 7-10
{10}
30 км ясно +14.9 +10.9 77 +13 +17 1022.1 1021.8
10 23.06 ЮЗ 7-9
{10}
28 км ясно +15.4 +10.7 74 +14 +18 1022.3 1021.9
11 23.06 ЮЗ 8 30 км ясно +15.8 +10.3 70 +14 +17 1022.2 1021.8
12 23.06 ЮЗ 8-10
{10}
40 км ясно +16.5 +9.4 63 +15 +17 1022.2 1021.8
13 23.06 ЮЗ 7 40 км ясно +16.7 +8.7 59 +16 +18 1022.1 1021.7
14 23.06 ЮЗ 8 30 км ясно +16.6 +8.7 60 +15 +17 1021.9 1021.5
15 23.06 ЮЗ 8-9
{10}
45 км ясно +16.5 +9.4 63 +15 +16 1021.7 1021.3
16 23.06 ЮЗ 8-10
{10}
40 км ясно +16.2 +10.7 70 +15 +15 1021.6 1021.2
17 23.06 З 6-8
{10}
45 км ясно +15.6 +11.7 78 +14 +15 1021.6 1021.2
18 23.06 З 5-6
{8}
40 км 4/4
[]
+15.1 +12.6 85 +14 +14 1021.3 1020.9 +14.5 +16.8
19 23.06 З 6 40 км 5/5
[]
+15.1 +12.2 83 +13 +13 1021.3 1020.9
20 23.06 З 7 40 км ясно +14.9 +12.1 83 +13 +13 1021.4 1021.0
21 23.06 З 7-9
{9}
50 км 3/0
[]
+14.7 +12.3 86 +13 +13 1021.5 1021.1
22 23.06 З 8 45 км 5/5
[]
+14.7 +12.3 86 +12 +12 1021.5 1021.1
23 23.06 З 7 30 км 9/9
[]
+14.3 +13.1 92 +12 +12 1022.0 1021.6
00 24.06 З 4-5
{8}
28 км 9/9 2000 м
[]
+14.1 +13.0 93 +13 +13 1022.2 1021.8
01 24.06 З 5 29 км 10/10
[]
+14.2 +13.0 92 +12 +12 1022.6 1022.2
02 24.06 З 6 45 км 8/0
[]
+15.2 +11.6 79 +14 +14 1022.7 1022.3
03 24.06 З 6-7
{7}
50 км ясно +15.2 +11.7 80 +14 +14 1023.1 1022.7
05 24.06 СЗ 5 40 км ясно +14.8 +10.8 77 +13 +16 1023.7 1023.3
06 24.06 СЗ 5-6
{7}
50 км ясно +15.4 +11.0 75 +14 +18 1024.2 1023.8 +14.1 +15.4
07 24.06 СЗ 4-4
{6}
35 км ясно +16.4 +10.8 69 +16 +22 1024.5 1024.1
08 24.06 СЗ 4-7
{7}
35 км ясно +17.2 +9.3 60 +17 +25 1024.8 1024.4

 

Местоположение метеостанции Котка Хаапасари (Финляндия): широта 60.29 долгота 27.19 высота над уровнем моря 4 м.

В архиве по умолчанию представлена погода в Котка Хаапасари за последнюю неделю. Архивные данные за месяц целиком и за предыдущие месяцы, начиная с января 2011 года, Вы можете получить, выбрав интересующий диапазон дат из раскрывающегося списка и нажав кнопку "Ввод!".


*Определитесь, кто Вы:
робот инопланетянин человек

Внимание! Время в таблицах - всемирное. Для получения местного времени необходимо прибавить поправку, которая равна 1 ч.

Смотрите также архив погоды в соседних городах и на ближайших метеорологических станциях:

Погода на Острове Ранкки (Финляндия) (16 км)
Погода в Гогланде (Ленинградская область, Россия) (26 км)
Погода в Коивуниеми (Финляндия) (38 км)
Погода в Орренгрунде (Финляндия) (41 км)
Погода в Аньяла (Финляндия) (50 км)
Погода в Утти Lentoportintie (Финляндия) (68 км)
Погода в Аэропорту Утти (Финляндия) (68 км)
Погода на Эмасало (Финляндия) (87 км)
Погода в Порвоо (Финляндия) (88 км)
Погода в Килпилахти (Финляндия) (90 км)

Пояснения к столбцам:

Ветер - указаны скорость ветра в м/с - средняя за 10 мин, порывы в срок и между сроками (в фигурных скобках) и направление, откуда дует ветер: С - северный, СВ - северо-восточный, В - восточный, ЮВ - юго-восточный, Ю - южный, ЮЗ - юго-западный, З - западный, СЗ - северо-западный.
Видимость - горизонтальная дальность видимости в метрах или километрах. При видимости от 1 до 10 км при отсутствии осадков обычно наблюдается дымка, при ухудшении видимости до 1 км и менее - туман. В сухую погоду видимость может ухудшаться дымом, пылью или мглою.
Явления - указаны атмосферные явления, наблюдавшиеся в срок или в последний час перед сроком; фигурными скобками обозначены явления, наблюдавшиеся между сроками (за 1-3 часа до срока); квадратными скобками обозначены град или гололедные отложения с указанием их диаметра в мм.
Облачность - указаны через наклонную черту общая и нижняя облачность в баллах и высота нижней границы облаков в метрах; квадратными скобками обозначены формы облаков: Ci - перистые, Cs - перисто-слоистые, Cc - перисто-кучевые, Ac - высококучевые, As - высокослоистые, Sc - слоисто-кучевые, Ns - слоисто-дождевые, Cu - кучевые, Cb - кучево-дождевые. Подробнее классификацию облаков см. в Атласе облаков (PDF).
T - Температура воздуха - температура, измеренная на высоте 2 м над землей.
Td - Температура точки росы - температура, при понижении до которой содержащийся в воздухе водяной пар достигнет насыщения.
f - Относительная влажность воздуха - влажноcть воздуха, измеренная на высоте 2 м над землей.
Te - Эффективная температура - температура, которую ощущает одетый по сезону человек в тени. Характеристика душности погоды. При расчете учитывается влияние влажности воздуха и скорости ветра на теплоощущения человека.
Tes - Эффективная температура на солнце - температура, которую ощущает человек, с поправкой на солнечный нагрев. Характеристика знойности погоды. Зависит от высоты солнца над горизонтом, облачности и скорости ветра. Ночью, в пасмурную погоду, а также при ветре 12 м/с и более поправка равна нулю.
P - Атмосферное давление - приведенное к уровню моря атмосферное давление.
Po - Атмосферное давление - измеренное на уровне метеостанции атмосферное давление.
Tmin - Минимальная температура - минимум температуры воздуха на высоте 2 м над землей.
Tmax - Максимальная температура - максимум температуры воздуха на высоте 2 м над землей.
R - Количество осадков - Количество выпавших осадков за период времени, мм. При наведении курсора мыши на число - период времени, за который выпало указанное количество осадков.
R24 - Количество осадков - Количество выпавших осадков за 24 часа, мм.
S - Снежный покров - Высота снежного покрова, см. При наведении курсора мыши на число - состояние снежного покрова и степень покрытия местности в баллах.